Location: East Guldeford
(50.9500°N, 0.7500°E)
Time: 17:07:30
(UTC+00:00)

ERBS - Pass Details

Date: 12 May 2021
Orbit: 399 x 417 km, 57.0° (Epoch: 15 June)

Event Time Altitude Azimuth Distance (km) Brightness Sun altitude
Rises 20:45:23 0° 295° (WNW) 2,345 7.6 -9.4°
Reaches altitude 10° 20:47:37 10° 306° (NW) 1,486 6.6 -9.6°
Maximum altitude 20:50:37 31° 11° (N) 759 3.9 -10.0°
Drops below altitude 10° 20:53:38 10° 76° (ENE) 1,493 4.8 -10.3°
Enters shadow 20:54:54 - 83° (E) 1,971 5.3 -10.4°
